User: anonymous   Login
Location: Asheville, NC
(35.6000°N, 82.5500°W)
Time: 17:14:46
(UTC-04:00)
Language:

DX 1 - Orbit

View from above orbital plane
View from above orbital plane
View from above satellite
View from above satellite

Ground track
Ground track

The orbit data is extracted from the following two-line orbital elements,

1 40071U 14037C   18169.50008948  .00000029  00000-0  11176-4 0  9997
2 40071  98.3758 300.9198 0007723 325.3797  34.6910 14.81163727213198
Epoch (UTC): 18 June 2018 12:00:07
Eccentricity: 0.0007723
inclination: 98.3758°
perigee height: 620 km
apogee height: 631 km
right ascension of ascending node: 300.9198°
argument of perigee: 325.3797°
revolutions per day: 14.81163727
mean anomaly at epoch: 34.6910°
orbit number at epoch: 21319

The dashed part of the orbit path shows where the satellite is in the earth's shadow,  

DLR